Change the Weather History Date:

Wednesday, July 18, 2012

  Actual Average Record
Temperature  
Mean Temperature 72 °F -  
Max Temperature 82 °F 84 °F 93 °F (1964)
Min Temperature 60 °F 59 °F 49 °F (1958)
Cooling Degree Days 7    
Growing Degree Days 22 (Base 50)    
Moisture  
Dew Point 60 °F    
Average Humidity 63    
Maximum Humidity 83    
Minimum Humidity 45    
Precipitation  
Precipitation 0.00 in - - ()
Sea Level Pressure  
Sea Level Pressure 29.75 in    
Wind  
Wind Speed 7 mph (WNW)    
Max Wind Speed 13 mph    
Max Gust Speed 20 mph    
Visibility 10 miles    
Events      
Averages and records for this station are not official NWS values.
T = Trace of Precipitation, MM = Missing Value Source: NWS Daily Summary

Daily Weather History Graph

Daily Weather History Graph

Search for Another Location

Airport or City:

Trip Planner

Search our weather history database for the weather conditions in past years. The results will help you decide how hot, cold, wet, or windy it might be!

Date:

Astronomy

Jul. 18, 2012 Rise Set
Actual Time 5:11 AM EDT 8:18 PM EDT
Civil Twilight 4:36 AM EDT 8:53 PM EDT
Nautical Twilight 3:50 AM EDT 9:38 PM EDT
Astronomical Twilight 2:56 AM EDT 10:32 PM EDT
Moon 4:43 AM EDT (7/18) 7:43 PM EDT (7/18)
Length of Visible Light 16h 17m
Length of Day
15h 07m
Waning Crescent, 0% of the Moon is Illuminated
Jul 18
Waning Crescent
Jul 19
New
Jul 26
First Quarter
Aug 1
Full
Aug 9
Last Quarter

Hourly Weather History & Observations

Time (EDT) Temp. Heat Index Dew Point Humidity Pressure Visibility Wind Dir Wind Speed Gust Speed Precip Events Conditions
12:15 AM 75.2 °F - 69.8 °F 83% 29.57 in 10.0 mi West 5.8 mph - N/A   Partly Cloudy
12:35 AM 75.2 °F - 69.8 °F 83% 29.58 in 10.0 mi West 8.1 mph - N/A   Partly Cloudy
12:55 AM 75.2 °F - 69.8 °F 83% 29.58 in 10.0 mi WNW 5.8 mph - N/A   Clear
1:15 AM 75.2 °F - 69.8 °F 83% 29.59 in 10.0 mi West 8.1 mph - N/A   Clear
1:35 AM 75.2 °F - 69.8 °F 83% 29.59 in 10.0 mi Calm Calm - N/A   Clear
1:55 AM 77.0 °F - 68.0 °F 74% 29.60 in 10.0 mi NW 5.8 mph - N/A   Partly Cloudy
2:15 AM 75.2 °F - 69.8 °F 83% 29.61 in 10.0 mi West 4.6 mph - N/A   Scattered Clouds
2:35 AM 75.2 °F - 68.0 °F 78% 29.62 in 10.0 mi NW 11.5 mph 17.3 mph N/A   Clear
3:15 AM 75.2 °F - 64.4 °F 69% 29.63 in 10.0 mi NW 12.7 mph 17.3 mph N/A   Clear
3:35 AM 75.2 °F - 62.6 °F 65% 29.63 in 10.0 mi NW 10.4 mph 17.3 mph N/A   Clear
3:55 AM 73.4 °F - 62.6 °F 69% 29.64 in 10.0 mi WNW 11.5 mph 17.3 mph N/A   Clear
4:15 AM 73.4 °F - 60.8 °F 65% 29.64 in 10.0 mi NW 11.5 mph 18.4 mph N/A   Clear
4:35 AM 73.4 °F - 60.8 °F 65% 29.65 in 10.0 mi NW 9.2 mph - N/A   Clear
4:55 AM 71.6 °F - 62.6 °F 73% 29.65 in 10.0 mi North 5.8 mph - N/A   Clear
5:15 AM 71.6 °F - 62.6 °F 73% 29.65 in 10.0 mi NNE 3.5 mph - N/A   Clear
5:55 AM 69.8 °F - 64.4 °F 83% 29.68 in 10.0 mi NNW 3.5 mph - N/A   Clear
6:15 AM 69.8 °F - 64.4 °F 83% 29.70 in 10.0 mi Calm Calm - N/A   Clear
6:35 AM 69.8 °F - 64.4 °F 83% 29.71 in 10.0 mi Calm Calm - N/A   Clear
6:55 AM 71.6 °F - 64.4 °F 78% 29.73 in 10.0 mi West 4.6 mph - N/A   Clear
7:15 AM 71.6 °F - 62.6 °F 73% 29.73 in 10.0 mi NW 6.9 mph - N/A   Clear
7:35 AM 71.6 °F - 62.6 °F 73% 29.74 in 10.0 mi NNW 6.9 mph - N/A   Clear
7:55 AM 71.6 °F - 62.6 °F 73% 29.74 in 10.0 mi WNW 3.5 mph - N/A   Clear
8:15 AM 71.6 °F - 64.4 °F 78% 29.75 in 10.0 mi West 3.5 mph - N/A   Clear
8:35 AM 71.6 °F - 64.4 °F 78% 29.75 in 10.0 mi West 3.5 mph - N/A   Clear
8:55 AM 71.6 °F - 64.4 °F 78% 29.77 in 10.0 mi Calm Calm - N/A   Clear
9:15 AM 71.6 °F - 64.4 °F 78% 29.77 in 10.0 mi SW 3.5 mph - N/A   Partly Cloudy
9:35 AM 73.4 °F - 64.4 °F 73% 29.77 in 10.0 mi WNW 4.6 mph - N/A   Clear
9:55 AM 73.4 °F - 62.6 °F 69% 29.78 in 10.0 mi West 4.6 mph - N/A   Partly Cloudy
10:35 AM 73.4 °F - 62.6 °F 69% 29.79 in 10.0 mi West 3.5 mph - N/A   Clear
10:55 AM 73.4 °F - 60.8 °F 65% 29.78 in 10.0 mi WNW 4.6 mph - N/A   Clear
11:15 AM 73.4 °F - 60.8 °F 65% 29.78 in 10.0 mi WSW 8.1 mph - N/A   Clear
11:35 AM 73.4 °F - 60.8 °F 65% 29.79 in 10.0 mi West 4.6 mph - N/A   Clear
11:55 AM 75.2 °F - 62.6 °F 65% 29.79 in 10.0 mi WSW 6.9 mph - N/A   Clear
12:15 PM 75.2 °F - 60.8 °F 61% 29.79 in 10.0 mi NNW 4.6 mph - N/A   Clear
12:35 PM 77.0 °F - 60.8 °F 57% 29.79 in 10.0 mi West 6.9 mph - N/A   Clear
12:55 PM 77.0 °F - 62.6 °F 61% 29.78 in 10.0 mi WSW 6.9 mph - N/A   Clear
1:15 PM 78.8 °F - 60.8 °F 54% 29.78 in 10.0 mi West 8.1 mph - N/A   Clear
1:35 PM 78.8 °F - 62.6 °F 57% 29.78 in 10.0 mi SSW 8.1 mph - N/A   Clear
1:55 PM 78.8 °F - 62.6 °F 57% 29.77 in 10.0 mi WSW 4.6 mph - N/A   Partly Cloudy
2:15 PM 80.6 °F 81.8 °F 62.6 °F 54% 29.77 in 10.0 mi West 5.8 mph - N/A   Partly Cloudy
2:35 PM 80.6 °F 81.5 °F 60.8 °F 51% 29.76 in 10.0 mi WSW 8.1 mph - N/A   Clear
2:55 PM 80.6 °F 81.5 °F 60.8 °F 51% 29.77 in 10.0 mi WSW 9.2 mph - N/A   Scattered Clouds
3:15 PM 80.6 °F 81.1 °F 59.0 °F 48% 29.76 in 10.0 mi WSW 4.6 mph - N/A   Mostly Cloudy
3:35 PM 82.4 °F 82.9 °F 60.8 °F 48% 29.76 in 10.0 mi WSW 11.5 mph - N/A   Partly Cloudy
3:55 PM 82.4 °F 82.5 °F 59.0 °F 45% 29.77 in 10.0 mi West 9.2 mph - N/A   Clear
4:15 PM 80.6 °F 81.5 °F 60.8 °F 51% 29.76 in 10.0 mi WSW 5.8 mph - N/A   Clear
4:35 PM 80.6 °F 81.8 °F 62.6 °F 54% 29.75 in 10.0 mi WSW 6.9 mph - N/A   Clear
4:55 PM 80.6 °F 81.8 °F 62.6 °F 54% 29.75 in 10.0 mi SW 8.1 mph - N/A   Clear
5:15 PM 80.6 °F 81.5 °F 60.8 °F 51% 29.76 in 10.0 mi SW 8.1 mph - N/A   Clear
5:35 PM 80.6 °F 81.5 °F 60.8 °F 51% 29.76 in 10.0 mi WSW 9.2 mph - N/A   Clear
5:55 PM 80.6 °F 81.5 °F 60.8 °F 51% 29.77 in 10.0 mi West 6.9 mph - N/A   Clear
6:15 PM 78.8 °F - 60.8 °F 54% 29.78 in 10.0 mi West 5.8 mph - N/A   Partly Cloudy
6:35 PM 77.0 °F - 60.8 °F 57% 29.79 in 10.0 mi WNW 4.6 mph - N/A   Clear
6:55 PM 78.8 °F - 59.0 °F 51% 29.80 in 10.0 mi NW 9.2 mph 16.1 mph N/A   Scattered Clouds
7:15 PM 77.0 °F - 57.2 °F 50% 29.81 in 10.0 mi NW 12.7 mph 19.6 mph N/A   Partly Cloudy
7:35 PM 75.2 °F - 55.4 °F 50% 29.82 in 10.0 mi NW 11.5 mph 17.3 mph N/A   Clear
7:55 PM 73.4 °F - 53.6 °F 50% 29.83 in 10.0 mi NW 10.4 mph - N/A   Clear
8:15 PM 71.6 °F - 53.6 °F 53% 29.83 in 10.0 mi WNW 11.5 mph 17.3 mph N/A   Clear
8:35 PM 71.6 °F - 51.8 °F 50% 29.84 in 10.0 mi NNW 9.2 mph - N/A   Clear
8:55 PM 69.8 °F - 50.0 °F 49% 29.85 in 10.0 mi NW 10.4 mph 18.4 mph N/A   Clear
9:15 PM 69.8 °F - 48.2 °F 46% 29.85 in 10.0 mi NW 9.2 mph - N/A   Clear
9:35 PM 68.0 °F - 48.2 °F 49% 29.86 in 10.0 mi North 8.1 mph - N/A   Clear
9:55 PM 66.2 °F - 48.2 °F 52% 29.86 in 10.0 mi NNE 5.8 mph - N/A   Clear
10:15 PM 64.4 °F - 48.2 °F 56% 29.87 in 10.0 mi NNW 5.8 mph - N/A   Clear
10:35 PM 64.4 °F - 48.2 °F 56% 29.87 in 10.0 mi NNW 6.9 mph - N/A   Clear
10:55 PM 62.6 °F - 48.2 °F 59% 29.88 in 10.0 mi NNW 5.8 mph - N/A   Clear
11:15 PM 62.6 °F - 48.2 °F 59% 29.88 in 10.0 mi NW 8.1 mph - N/A   Clear
11:35 PM 64.4 °F - 48.2 °F 56% 29.88 in 10.0 mi WNW 3.5 mph - N/A   Clear
11:55 PM 60.8 °F - 48.2 °F 63% 29.88 in 10.0 mi Calm Calm - N/A   Clear